Temp
90 85 82 87 90 90 87 85 83 89 94 89 88 90 95 100 101 99 101 102 101 101 104 103 102 102 99 97 94 91 90 88 92 91 89 90 90 92 94 96 95 95 94 94
86 80 90 91 89 85 84 82 82 88 92 90 89 87 95 97 98 100 101 101 103 103 103 103 101 100 99 96 93 90 89 87 88 92 91 92 93 95 95 96 94 94 93 92
83 88 90 86 84 81 83 81 82 82 89 90 87 84 88 96 99 101 101 103 103 104 103 101 101 99 99 97 94 91 88 87 87 87 91 90 92 93 94 93 94 92 92 91
86 92 86 84 82 85 78 89 85 83 81 76 90 74 86 91 93 97 99 101 103 104 104 103 102 100 98 99 99 95 89 86 88 86 88 83 89 89 93 93 95 92 90 90
83 84 83 81 83 87 82 88 84 83 81 80 82 78 85 91 87 92 97 99 99 102 103 103 103 103 104 102 102 99 92 88 87 85 85 89 85 92 94 93 90 88 87 88
86 92 88 87 89 88 90 84 84 84 82 71 79 79 81 87 88 91 96 97 96 99 100 100 101 103 104 106 105 101 95 88 87 87 84 82 84 84 92 91 92 93 90 85
84 85 90 90 84 89 86 79 69 68 70 70 83 79 82 90 92 93 93 94 95 97 98 97 96 97 94 94 94 96 96 90 89 87 86 83 82 83 82 86 91 90 90 85
76 73 85 88 85 82 83 80 72 60 66 73 81 72 82 92 94 94 93 92 92 93 95 95 94 94 93 91 91 92 94 92 95 89 87 86 85 87 89 86 92 93 91 84
76 76 88 87 89 88 81 77 86 74 76 72 77 82 90 91 88 89 88 87 86 88 91 92 93 92 94 93 91 89 89 91 91 91 91 87 87 85 87 85 85 90 89 86
79 71 85 87 88 89 84 88 73 76 60 59 72 75 73 81 81 84 83 83 84 87 89 90 91 90 92 93 93 92 90 90 91 91 90 92 89 87 86 84 85 86 86 85
82 75 78 83 81 80 81 78 79 78 74 64 63 72 82 79 80 79 81 82 83 85 87 88 90 91 92 92 92 90 89 90 89 88 90 89 89 88 86 85 85 85 85 85
79 74 69 76 86 88 84 78 77 68 66 73 72 72 85 82 82 79 79 80 82 83 85 87 87 88 88 88 88 88 86 89 88 87 86 88 89 88 85 84 85 86 85 86
77 72 64 69 79 83 76 78 77 75 71 64 64 69 83 82 81 80 79 80 81 82 83 84 83 83 84 84 83 85 85 86 86 85 86 85 85 84 84 84 84 85 85 85
69 70 67 63 70 76 71 75 77 74 66 68 70 73 80 78 76 77 78 79 81 81 81 82 81 82 82 82 82 82 83 84 83 83 83 82 82 79 80 81 82 84 84 82
72 63 70 72 74 75 73 73 74 71 72 66 71 72 77 77 75 76 78 78 78 79 79 79 78 79 80 80 80 82 82 82 80 78 79 80 81 81 80 80 79 79 81 81
72 63 68 65 72 73 70 73 74 74 74 73 74 72 77 77 79 76 75 75 74 76 78 79 77 76 76 78 79 79 79 80 80 78 77 78 80 80 77 77 77 74 74 77
68 65 63 59 69 70 62 70 72 73 75 71 65 70 73 71 72 73 73 74 74 75 75 74 74 74 75 77 77 77 78 79 78 77 78 77 77 77 77 77 76 75 71 72
65 63 63 59 63 51 69 73 72 69 71 71 70 70 70 70 72 75 77 76 72 72 72 72 74 74 76 77 77 77 78 77 76 76 76 77 76 74 74 74 74 71 73 70
71 64 60 57 58 65 70 68 66 63 64 71 66 67 69 70 71 71 78 74 72 72 72 74 75 76 75 76 76 76 75 75 75 75 75 76 76 72 71 70 71 73 69 70
69 66 61 60 53 50 62 66 70 70 58 67 65 65 65 67 60 67 70 72 72 73 73 73 74 75 74 74 76 74 73 74 73 75 76 76 75 71 69 69 68 70 71 68
60 60 56 57 55 62 65 66 70 53 55 64 66 66 65 62 65 67 70 71 72 72 71 72 72 70 69 71 68 66 70 71 74 76 75 75 75 73 70 68 68 68 68 67
60 58 58 60 54 51 65 66 57 59 64 65 66 66 64 65 66 67 67 67 67 66 69 70 68 67 68 69 66 61 60 67 71 74 73 73 73 74 74 68 67 66 64 64
56 62 57 58 59 63 68 63 67 67 64 65 65 65 63 61 62 62 62 61 63 63 64 66 66 66 67 68 67 64 65 64 62 65 68 71 72 72 69 68 66 65 62 61
63 65 60 59 65 66 67 69 68 68 67 67 63 63 62 58 59 58 58 57 59 60 64 65 65 63 62 64 65 66 67 67 61 61 64 68 68 66 68 69 65 61 60 58
66 63 59 59 64 65 66 67 67 66 64 64 64 61 62 64 62 60 60 59 58 62 62 66 65 63 63 64 63 66 68 67 65 62 64 65 69 67 67 67 65 59 58 54
68 62 59 59 61 61 62 66 64 59 63 63 62 65 67 65 59 58 57 59 59 61 63 64 63 61 61 65 64 63 66 66 65 61 61 67 70 67 66 65 66 48 46 43
MSLP
1005.32 1004.26 1002.99 1002.23 1002.04 1001.83 1001.45 1001.16 1000.56 1000.20 1000.32 1000.47 1000.61 1000.08 999.52 999.28 999.13 999.52 999.92 1000.00 1000.55 1001.67 1002.68 1003.95 1005.10 1005.77 1006.73 1007.78 1008.78 1009.78 1010.63 1011.21 1011.71 1012.20 1012.80 1012.91 1012.88 1013.17 1013.40 1013.41 1013.74 1014.16 1014.72 1014.98
1004.27 1003.51 1002.44 1002.36 1002.73 1003.00 1002.73 1002.21 1001.64 1001.34 1001.00 1000.87 1000.39 1000.14 999.54 999.42 999.20 999.35 999.47 999.54 999.69 1000.17 1001.59 1002.56 1003.92 1005.18 1005.97 1007.03 1007.98 1008.95 1009.49 1010.40 1011.26 1011.52 1012.00 1012.24 1012.29 1012.37 1012.54 1012.63 1013.04 1013.84 1014.42 1014.71
1003.08 1002.24 1003.04 1003.04 1003.27 1003.38 1002.84 1002.35 1001.78 1001.46 1000.97 1000.86 1000.65 1000.00 999.48 999.05 999.09 999.06 999.42 999.80 999.91 999.90 1000.10 1001.51 1002.84 1004.27 1005.38 1006.07 1007.33 1008.53 1009.59 1010.18 1010.73 1011.23 1011.73 1012.00 1012.09 1012.11 1011.88 1012.27 1012.80 1013.13 1013.73 1014.54
1002.96 1002.59 1002.93 1003.23 1003.07 1002.92 1002.29 1001.85 1002.32 1001.90 1001.72 1000.40 999.57 998.85 997.98 998.01 998.44 998.66 999.19 999.32 999.30 999.36 1000.02 1001.25 1001.94 1003.15 1004.47 1005.28 1006.37 1007.48 1008.82 1009.53 1010.00 1010.65 1010.67 1010.98 1010.97 1010.92 1011.26 1011.58 1011.91 1012.72 1013.44 1013.93
1002.33 1002.67 1002.89 1002.99 1002.74 1002.77 1002.30 1002.41 1002.55 1002.35 1001.87 1001.15 999.92 999.35 997.62 997.86 998.27 998.75 999.14 999.22 1000.06 1000.16 1000.52 1001.03 1001.77 1002.42 1003.56 1004.55 1005.35 1006.21 1007.33 1008.39 1009.23 1009.53 1009.63 1009.79 1010.26 1010.08 1010.39 1010.81 1010.98 1011.84 1012.73 1013.60
1002.54 1002.73 1002.93 1002.45 1002.55 1002.94 1002.89 1003.09 1002.77 1002.41 1001.68 1000.56 999.74 999.15 997.57 997.38 998.05 998.83 999.19 1000.13 1001.35 1001.61 1002.11 1002.65 1002.90 1002.91 1002.97 1003.40 1004.09 1004.90 1006.02 1006.96 1007.91 1008.84 1009.56 1009.52 1009.07 1009.70 1009.58 1009.78 1010.14 1010.44 1011.42 1012.53
1002.05 1002.08 1002.32 1002.81 1002.50 1002.53 1003.00 1002.85 1001.87 1001.04 1000.16 999.09 998.73 998.80 998.13 998.25 998.88 999.68 1000.40 1001.50 1002.47 1002.75 1003.20 1003.70 1004.08 1004.30 1004.93 1005.02 1005.01 1004.88 1004.90 1005.58 1006.53 1007.31 1007.80 1008.42 1009.05 1009.07 1009.04 1008.97 1009.16 1009.37 1009.98 1011.23
1001.09 1000.99 1001.44 1002.29 1002.36 1001.73 1001.92 1002.27 1001.48 1000.51 999.66 998.69 999.48 998.83 998.38 999.23 1000.13 1001.10 1002.15 1003.35 1004.02 1004.20 1004.40 1004.62 1004.97 1005.32 1005.52 1005.94 1006.00 1005.81 1005.64 1005.80 1005.80 1006.30 1006.49 1007.19 1007.87 1008.29 1008.17 1008.39 1008.07 1008.31 1008.43 1009.47
1001.66 1001.36 1001.99 1002.39 1002.25 1002.24 1001.46 1001.70 1001.76 1001.76 1001.38 1000.63 999.61 998.83 998.33 999.24 1000.88 1002.08 1003.53 1004.55 1005.21 1005.44 1005.55 1005.60 1005.62 1006.09 1005.90 1006.06 1006.41 1006.72 1006.60 1006.25 1006.15 1005.80 1005.73 1006.12 1006.71 1007.16 1007.14 1007.59 1007.75 1007.82 1007.42 1008.29
1003.45 1002.78 1002.08 1002.22 1002.84 1002.45 1002.32 1002.18 1002.35 1001.97 1001.72 1000.84 999.66 999.19 999.37 1000.45 1002.12 1003.36 1004.51 1005.39 1006.05 1006.27 1006.24 1006.28 1006.40 1006.64 1006.59 1006.64 1006.64 1006.90 1006.96 1006.46 1005.94 1005.74 1005.61 1005.23 1005.53 1006.17 1006.56 1007.16 1006.83 1006.71 1007.10 1007.30
1004.60 1004.55 1003.04 1002.96 1002.26 1001.75 1002.07 1002.37 1002.54 1002.78 1002.81 1001.87 1001.08 1000.38 1001.62 1002.73 1003.81 1004.88 1005.84 1006.66 1006.97 1007.13 1007.06 1007.02 1007.09 1007.13 1007.12 1007.26 1007.31 1007.41 1007.38 1006.65 1006.40 1006.19 1005.40 1005.15 1005.22 1005.44 1005.69 1005.88 1006.05 1006.32 1006.34 1006.51
1006.11 1005.73 1004.38 1003.30 1002.59 1002.88 1003.19 1003.35 1003.71 1003.54 1003.31 1002.80 1002.08 1001.65 1002.62 1003.95 1005.06 1006.19 1006.78 1007.41 1007.83 1008.04 1007.89 1007.93 1007.95 1007.85 1007.83 1007.88 1008.02 1007.83 1007.78 1007.16 1006.95 1006.71 1006.12 1005.26 1004.59 1004.85 1005.03 1005.25 1005.17 1005.43 1005.51 1005.51
1007.18 1006.36 1005.49 1004.23 1003.05 1003.22 1003.90 1003.87 1004.37 1004.59 1005.07 1004.42 1003.62 1002.82 1003.55 1004.78 1005.44 1006.59 1007.24 1007.76 1008.11 1008.28 1008.33 1008.50 1008.70 1008.67 1008.72 1008.68 1008.66 1008.45 1008.04 1007.65 1007.39 1007.15 1006.44 1005.71 1005.02 1004.39 1004.36 1004.47 1004.64 1004.58 1004.60 1004.60
1008.96 1007.81 1006.89 1005.62 1004.21 1004.11 1004.24 1004.49 1004.67 1004.89 1004.84 1004.20 1003.80 1003.36 1003.49 1004.82 1006.15 1007.32 1008.04 1008.42 1008.45 1008.56 1008.65 1008.80 1009.13 1009.15 1009.23 1009.13 1008.98 1008.79 1008.37 1008.13 1007.76 1007.39 1006.76 1006.17 1005.67 1005.07 1004.29 1004.13 1003.99 1003.87 1003.96 1004.02
1009.34 1008.53 1007.71 1006.70 1006.05 1005.58 1005.24 1005.07 1005.07 1005.08 1005.13 1004.89 1004.62 1004.58 1005.07 1005.82 1007.16 1007.90 1008.55 1008.95 1008.95 1008.82 1008.92 1009.33 1009.66 1009.82 1009.71 1009.30 1008.98 1008.65 1008.39 1008.14 1007.96 1007.74 1007.03 1006.32 1005.84 1005.09 1004.55 1003.89 1003.75 1003.65 1003.35 1003.40
1009.74 1009.15 1008.49 1007.64 1007.03 1006.29 1005.58 1005.41 1005.37 1005.32 1005.35 1005.24 1005.39 1005.60 1006.82 1007.79 1008.20 1008.60 1009.23 1009.61 1009.77 1009.59 1009.36 1009.43 1010.23 1010.56 1010.17 1009.53 1008.96 1008.56 1008.27 1007.91 1007.71 1007.31 1007.06 1006.47 1005.72 1005.13 1004.79 1004.45 1003.72 1003.54 1003.37 1003.13
1009.85 1009.63 1008.92 1007.59 1007.14 1006.19 1005.91 1005.46 1005.28 1005.28 1005.86 1006.18 1006.79 1007.70 1008.89 1009.39 1009.71 1009.80 1010.14 1010.38 1010.17 1009.90 1010.07 1010.39 1010.75 1010.72 1010.23 1009.66 1009.09 1008.42 1008.10 1007.81 1007.42 1007.04 1006.56 1006.27 1005.88 1005.15 1004.77 1004.39 1003.94 1003.27 1003.02 1003.00
1010.14 1010.10 1009.71 1008.47 1007.97 1006.67 1005.80 1007.12 1007.34 1007.38 1007.57 1008.24 1009.08 1009.65 1010.56 1010.87 1011.10 1010.95 1010.78 1010.31 1010.94 1011.29 1011.35 1011.21 1010.81 1010.36 1009.95 1009.50 1009.11 1008.61 1008.15 1007.63 1007.10 1006.64 1006.16 1005.77 1005.57 1005.28 1004.82 1004.31 1003.68 1003.31 1002.84 1002.54
1010.21 1010.47 1009.61 1008.84 1007.81 1006.92 1006.67 1007.91 1008.64 1009.00 1009.06 1009.50 1010.84 1011.59 1011.92 1012.01 1011.76 1010.87 1010.26 1011.21 1011.65 1011.58 1011.35 1010.94 1010.51 1009.98 1009.54 1009.16 1008.73 1008.27 1007.69 1007.29 1006.71 1006.06 1005.64 1005.32 1005.01 1005.02 1004.83 1004.20 1003.48 1002.90 1002.60 1002.09
1010.09 1010.72 1010.37 1009.16 1008.26 1007.92 1008.46 1010.07 1010.60 1010.64 1010.64 1011.79 1012.68 1012.62 1012.59 1012.41 1011.57 1010.99 1011.77 1012.03 1011.84 1011.61 1011.20 1010.64 1010.12 1009.56 1009.02 1008.61 1008.19 1007.64 1007.04 1006.45 1005.98 1005.54 1004.97 1004.63 1004.49 1004.54 1004.45 1003.96 1003.40 1002.71 1002.24 1001.69
1009.94 1010.27 1010.00 1009.36 1009.07 1008.99 1010.45 1011.25 1011.35 1011.63 1012.82 1013.38 1013.47 1013.45 1013.35 1013.18 1013.20 1012.88 1012.42 1011.82 1011.66 1011.48 1011.08 1010.60 1010.14 1009.73 1009.33 1008.89 1008.68 1007.97 1006.98 1006.03 1005.34 1004.84 1004.47 1004.07 1003.72 1003.54 1003.52 1003.46 1002.97 1002.42 1001.93 1001.41
1009.30 1009.52 1009.32 1009.16 1009.65 1010.31 1012.07 1011.88 1012.52 1013.64 1013.88 1013.94 1013.87 1014.01 1013.92 1013.85 1013.57 1013.29 1012.98 1012.67 1012.26 1011.87 1011.18 1010.68 1010.15 1009.54 1009.18 1008.76 1008.60 1007.79 1007.17 1006.64 1005.70 1004.50 1003.95 1003.58 1003.26 1002.83 1002.33 1002.47 1002.28 1002.02 1001.64 1000.90
1010.44 1010.50 1010.73 1010.80 1010.65 1012.05 1012.44 1013.36 1013.88 1014.23 1014.29 1014.32 1014.52 1014.76 1015.00 1014.67 1014.28 1013.98 1013.59 1013.47 1013.01 1012.58 1011.82 1010.91 1009.93 1009.26 1008.82 1008.23 1007.90 1007.00 1006.40 1006.13 1005.71 1004.83 1004.07 1003.00 1002.79 1002.54 1002.24 1001.88 1001.67 1001.41 1001.28 1000.64
1010.94 1011.72 1011.84 1012.04 1011.41 1012.09 1012.79 1013.52 1014.12 1014.44 1014.57 1014.86 1015.40 1015.46 1015.03 1014.73 1014.50 1014.31 1013.93 1013.55 1013.14 1012.42 1011.22 1010.49 1009.58 1008.81 1008.22 1007.88 1007.44 1006.67 1005.86 1005.27 1004.91 1004.29 1003.49 1002.90 1002.42 1002.21 1001.72 1001.32 1001.21 1001.33 1001.27 1000.75
1011.04 1012.47 1012.33 1012.43 1012.43 1012.79 1013.34 1013.84 1014.42 1014.85 1015.35 1015.41 1015.42 1015.29 1014.58 1013.96 1013.80 1013.87 1013.54 1013.21 1012.90 1011.92 1010.94 1009.98 1009.20 1008.53 1007.78 1007.17 1006.67 1005.95 1005.06 1004.52 1003.80 1003.39 1003.01 1002.50 1001.80 1001.25 1000.75 1000.50 1000.61 1000.89 1000.93 1000.93
1011.67 1012.20 1012.66 1012.42 1013.82 1014.23 1014.31 1014.74 1015.51 1015.84 1015.37 1015.27 1014.84 1014.04 1013.55 1013.81 1013.99 1014.10 1013.65 1013.19 1012.65 1011.65 1010.70 1009.66 1009.07 1008.30 1007.41 1006.35 1005.51 1005.10 1004.65 1003.96 1003.23 1002.75 1002.41 1001.47 1000.49 1000.42 1000.38 1000.00 999.81 1000.25 1000.43 1000.40
Wind_Speed
14 11 13 16 15 15 14 14 14 13 7 6 13 17 19 12 9 9 15 13 15 14 15 18 19 20 22 20 19 18 16 15 11 13 14 13 13 12 12 12 12 11 12 12
9 12 14 3 6 7 11 13 13 14 16 16 14 18 19 13 17 10 14 10 10 15 15 18 21 20 20 20 19 18 19 17 15 12 11 12 11 13 13 12 12 11 12 12
14 2 5 4 9 10 12 13 11 12 14 9 15 19 19 18 18 14 9 11 14 14 13 18 19 21 20 21 20 19 17 16 15 17 11 10 10 11 12 11 12 13 14 14
11 12 7 8 12 10 13 16 9 7 10 13 13 12 14 21 17 12 12 13 14 16 8 7 17 19 21 20 20 21 19 18 17 18 15 18 14 14 12 12 13 12 14 14
3 6 9 12 12 10 6 6 5 8 12 13 15 9 10 8 5 8 13 4 15 14 13 5 9 15 18 19 19 19 19 19 19 19 21 16 18 14 12 12 13 14 14 13
15 4 5 8 9 5 12 6 13 13 13 13 15 13 11 3 8 5 10 13 9 8 7 6 7 7 5 13 18 18 19 20 21 19 19 21 19 18 14 15 14 12 12 14
17 14 12 8 12 10 11 9 10 11 12 13 5 6 9 12 8 9 9 10 8 7 9 9 10 10 10 11 13 14 10 18 21 22 22 23 22 18 21 16 15 15 14 13
7 16 12 4 12 11 18 12 11 13 11 10 11 6 8 9 10 10 10 9 8 9 9 9 11 10 8 9 11 11 11 12 11 20 22 19 21 15 16 19 16 16 14 16
4 6 10 4 3 7 5 11 9 12 14 12 15 15 15 18 13 12 10 7 7 8 9 10 12 11 11 11 10 11 12 10 11 13 14 17 17 19 17 20 17 18 16 15
4 10 5 8 6 12 11 11 8 10 14 15 13 13 9 14 12 10 9 8 8 8 11 11 11 11 11 11 12 12 11 13 11 8 10 11 14 16 16 17 19 19 21 17
3 5 11 8 10 10 6 12 9 9 10 13 13 7 12 10 9 7 7 8 9 10 11 11 11 12 12 13 13 13 13 14 13 15 14 9 10 13 14 16 17 18 18 17
6 6 9 14 16 11 10 15 15 12 12 12 14 10 12 8 9 4 6 8 9 10 11 12 12 12 13 14 14 14 13 14 14 15 15 16 10 11 12 13 16 16 19 19
2 5 8 14 17 11 10 5 5 5 6 13 14 13 11 7 7 7 7 7 9 10 11 11 12 12 13 14 14 15 15 16 15 15 16 15 15 8 10 12 14 15 17 19
3 7 10 12 17 14 10 11 12 13 11 14 14 18 16 4 8 6 8 10 10 11 11 12 13 14 15 15 14 15 15 16 17 17 16 15 15 16 7 9 10 14 16 18
4 10 12 14 16 15 17 18 18 18 18 19 18 19 18 13 9 7 7 12 13 14 11 11 13 16 18 18 18 18 17 16 15 16 18 15 13 15 15 9 11 11 16 16
5 8 9 15 16 19 20 17 18 19 18 21 19 13 12 10 11 11 13 15 17 17 18 11 15 20 21 20 18 18 19 18 17 16 17 18 16 13 13 16 12 10 12 15
7 7 9 14 15 13 12 16 13 8 8 7 8 12 12 13 15 15 14 17 19 14 18 19 20 21 19 20 20 20 19 19 18 18 17 16 17 16 14 14 15 13 12 13
10 10 10 13 11 17 6 4 4 6 8 3 6 8 11 13 14 17 17 15 15 18 19 20 19 19 20 19 20 19 19 19 19 19 19 17 16 17 16 15 14 11 13 13
12 12 11 11 12 13 14 9 5 7 8 3 7 10 12 15 17 17 13 21 20 20 20 20 20 21 21 21 21 21 20 20 20 19 18 18 15 16 18 16 15 13 11 13
8 10 12 12 11 12 8 8 5 4 9 12 11 14 17 19 16 14 23 22 22 22 20 20 23 23 22 22 20 21 22 21 20 20 19 17 16 14 17 16 15 14 12 12
10 9 12 11 12 12 10 5 6 10 6 12 13 15 17 16 15 21 23 22 22 23 24 24 22 21 19 20 19 22 23 23 21 20 18 18 17 15 13 15 13 12 12 13
8 11 10 12 13 13 9 4 6 10 10 13 15 16 19 20 22 22 23 23 21 22 25 24 23 19 19 20 20 19 18 20 23 21 18 18 17 15 13 14 12 12 12 13
6 5 7 7 7 4 5 4 6 8 11 12 16 18 17 19 20 21 22 23 22 24 20 22 20 21 20 18 18 20 19 17 17 19 22 16 16 17 17 16 13 11 10 10
7 3 5 7 4 2 5 7 2 8 12 15 14 17 18 18 18 19 16 15 17 17 21 20 20 19 19 17 19 20 20 19 16 18 18 16 15 16 16 11 9 7 10 8
7 2 5 9 10 4 2 6 11 15 15 13 17 16 18 18 18 17 18 17 14 19 16 18 18 18 22 21 19 21 19 19 18 16 16 15 15 15 13 11 10 6 7 7
8 7 7 4 8 6 10 13 15 11 13 11 14 16 15 17 17 18 17 14 16 18 18 18 19 18 19 22 18 16 17 20 19 15 12 14 13 10 12 11 12 8 11 12
Wind_Direction
209 226 223 241 223 267 327 306 311 307 267 278 275 284 275 266 260 216 248 234 200 210 208 189 196 193 189 192 192 189 203 195 211 194 200 212 209 213 215 224 216 213 205 208
181 235 262 268 333 272 263 265 263 266 272 268 266 265 262 251 266 237 263 266 258 189 202 203 193 205 199 193 192 196 197 199 200 204 211 215 218 216 214 212 210 208 208 215
251 43 27 282 217 247 241 264 263 272 298 251 263 261 263 260 257 258 274 269 269 282 210 192 200 196 209 206 194 199 203 204 203 216 205 219 233 233 219 217 209 194 207 209
242 255 199 230 237 227 260 217 238 272 262 264 215 268 251 219 229 204 239 242 242 235 183 268 197 202 206 218 208 202 199 208 204 199 220 211 217 224 223 215 217 197 199 207
173 220 225 237 248 222 283 12 271 275 274 274 262 237 274 96 196 254 242 258 26 7 11 346 212 206 212 214 226 207 202 203 212 205 212 211 216 218 223 215 221 200 184 198
274 142 266 250 219 198 277 263 247 243 253 252 236 259 259 276 167 182 79 61 37 30 51 38 16 353 273 223 219 214 205 205 202 213 215 226 220 218 219 218 213 204 188 187
210 222 202 229 245 204 233 250 253 229 227 233 154 247 289 328 42 30 42 76 66 39 58 50 44 31 23 1 347 335 225 209 205 207 214 213 228 223 218 228 214 202 194 188
238 178 176 154 240 239 209 239 263 302 298 308 133 242 269 86 81 87 79 72 44 31 37 34 54 31 37 23 11 352 334 310 266 213 220 223 218 225 228 219 230 213 205 195
302 178 119 230 272 269 270 235 271 290 275 267 275 276 244 139 117 108 99 84 52 32 33 29 33 23 10 23 38 18 353 323 306 282 246 224 226 226 233 235 223 239 216 196
27 290 206 125 250 238 259 309 272 225 251 260 256 275 36 126 116 110 96 71 53 18 21 20 19 26 10 12 18 17 358 350 341 313 295 266 231 233 235 236 241 235 236 199
338 250 265 170 232 288 191 230 225 256 301 303 297 298 73 71 65 85 77 44 29 9 14 3 5 12 8 10 12 9 356 351 359 351 331 281 265 257 242 244 235 246 234 215
74 302 271 282 313 309 292 287 289 280 274 272 286 285 103 115 112 65 47 33 10 9 6 349 359 1 1 0 1 355 353 353 354 352 337 329 274 259 245 255 242 234 242 226
70 237 266 247 237 180 250 196 288 300 282 264 280 283 121 148 124 57 16 7 347 351 359 343 353 352 352 350 350 345 344 347 348 342 338 336 327 284 249 250 253 241 237 237
323 271 266 283 303 324 288 243 253 282 265 279 273 292 300 131 54 1 351 338 333 335 343 345 342 341 340 336 337 333 339 339 342 336 334 332 329 323 276 280 269 251 240 238
309 266 275 280 288 288 288 283 279 271 270 268 282 292 296 1 15 0 346 340 335 331 323 336 338 335 329 327 327 324 329 327 332 329 325 322 322 319 326 265 267 268 255 241
154 277 280 275 274 268 265 270 269 264 266 265 267 279 30 360 342 349 346 337 332 318 310 321 338 328 321 319 318 320 318 321 320 321 317 316 317 316 322 330 275 248 253 252
249 280 277 272 283 289 274 268 273 272 303 349 294 10 10 349 345 343 323 319 305 320 342 339 324 314 312 313 311 312 315 312 310 310 309 310 312 313 314 314 307 273 239 240
258 243 270 270 281 266 254 72 359 317 323 305 311 354 348 334 326 316 309 315 352 332 321 313 307 307 308 309 308 306 304 305 303 302 304 306 304 308 313 306 297 298 276 244
221 252 263 264 253 265 267 65 10 4 312 355 6 341 331 328 317 292 332 352 333 323 314 309 308 306 306 303 304 303 300 298 296 296 299 301 306 306 306 302 302 301 294 274
228 227 254 255 245 265 85 68 21 325 263 35 349 330 331 327 309 319 340 321 314 311 309 309 309 307 302 302 302 296 293 292 294 295 295 298 298 294 296 298 299 294 296 293
204 222 230 239 256 261 59 15 310 259 12 339 330 324 323 318 315 313 309 310 320 323 321 318 314 312 306 309 312 308 306 294 289 291 297 296 298 293 277 286 293 299 307 293
226 224 234 229 247 253 28 204 324 0 326 330 328 326 321 320 317 317 320 315 316 316 315 319 312 309 306 311 307 297 296 303 306 297 290 293 299 295 290 283 288 293 301 292
258 335 335 324 29 137 94 3 331 331 316 325 330 324 321 308 309 310 314 314 312 309 311 302 308 310 304 301 299 296 293 295 296 297 296 288 292 297 300 292 291 295 302 302
168 184 271 317 160 4 344 312 319 323 326 335 332 316 311 311 313 308 301 299 302 303 300 309 305 306 304 303 298 293 296 292 285 283 288 290 297 291 287 283 280 282 291 299
349 152 263 283 274 339 187 17 340 346 342 322 311 320 298 305 321 321 318 316 306 300 304 312 308 310 308 301 293 292 297 298 293 284 288 283 279 277 288 281 284 260 257 263
239 242 262 325 15 329 323 343 345 322 302 311 294 305 319 339 326 326 313 316 308 309 313 318 323 322 314 312 301 299 303 298 293 292 289 279 287 301 287 283 285 233 239 260